FW3675 Weather Reports


Display with metric or nautical units.
time (UTC)temp
F
wind
direction
speed
MPH
gust
MPH
rain 1hr
in
rain 24hr
in
rain mn
in
humidity
%
barometer
mb
20240417230021 75 271 10.0 31.0 0.00 0.00 0.00 22 1001.3
20240417224517 74 264 15.0 28.0 0.00 0.00 0.00 21 1001.4
20240417223016 73 281 13.0 29.0 0.00 0.00 0.00 21 1001.1
20240417221508 71 262 11.0 33.0 0.00 0.00 0.00 23 1001.0
20240417220005 70 300 18.0 30.0 0.00 0.00 0.00 23 1001.0
20240417214504 70 284 11.0 23.0 0.00 0.00 0.00 24 1001.1
20240417213004 70 257 12.0 32.0 0.00 0.00 0.00 24 1001.1
20240417211503 70 204 13.0 25.0 0.00 0.00 0.00 23 1001.3
20240417210103 70 255 13.0 27.0 0.00 0.00 0.00 24 1001.5
20240417204559 71 269 16.0 36.0 0.00 0.00 0.00 23 1001.8
20240417203059 70 1 13.0 27.0 0.00 0.00 0.00 25 1001.9
20240417201557 71 343 11.0 32.0 0.00 0.00 0.00 23 1002.1
20240417200104 71 257 14.0 37.0 0.00 0.00 0.00 25 1002.0
20240417194554 70 255 12.0 29.0 0.00 0.00 0.00 23 1002.4
20240417193049 69 175 9.0 21.0 0.00 0.00 0.00 27 1003.0
20240417191548 68 360 0.0 0.0 0.00 0.00 0.00 28 1002.8
20240417190046 69 360 0.0 0.0 0.00 0.00 0.00 29 1003.3
20240417184541 68 360 0.0 0.0 0.00 0.00 0.00 27 1003.4
20240417183043 67 360 0.0 0.0 0.00 0.00 0.00 27 1004.0
20240417181534 65 360 0.0 0.0 0.00 0.00 0.00 29 1004.1
20240417180032 64 360 0.0 0.0 0.00 0.00 0.00 32 1004.5
20240417174528 63 360 0.0 0.0 0.00 0.00 0.00 33 1004.6
20240417173026 62 360 0.0 0.0 0.00 0.00 0.00 34 1004.9
20240417171522 62 360 0.0 0.0 0.00 0.00 0.00 41 1004.9
20240417170019 61 360 0.0 0.0 0.00 0.00 0.00 41 1005.0
20240417164517 59 360 0.0 0.0 0.00 0.00 0.00 43 1005.2
20240417163017 58 360 0.0 0.0 0.00 0.00 0.00 46 1005.4
20240417161519 59 360 0.0 0.0 0.00 0.00 0.00 39 1005.3
20240417160018 61 360 0.0 0.0 0.00 0.00 0.00 33 1005.3
20240417154511 57 360 0.0 0.0 0.00 0.00 0.00 44 1005.4
20240417153014 54 360 0.0 0.0 0.00 0.00 0.00 49 1005.7
20240417151509 53 360 0.0 0.0 0.00 0.00 0.00 52 1006.0
20240417150021 53 360 0.0 0.0 0.00 0.00 0.00 56 1006.1
20240417144505 53 360 0.0 0.0 0.00 0.00 0.00 54 1006.1
20240417143004 55 360 0.0 0.0 0.00 0.00 0.00 50 1006.3
20240417141510 53 360 0.0 0.0 0.00 0.00 0.00 52 1006.5
20240417140002 50 360 0.0 0.0 0.00 0.00 0.00 58 1006.7
20240417134623 48 360 0.0 0.0 0.00 0.00 0.00 56 1006.7
20240417133103 47 360 0.0 0.0 0.00 0.00 0.00 57 1006.7
20240417131559 48 360 0.0 0.0 0.00 0.00 0.00 57 1006.6
20240417130058 49 360 0.0 0.0 0.00 0.00 0.00 55 1006.7
20240417124549 52 360 0.0 0.0 0.00 0.00 0.00 48 1006.6
20240417123051 57 360 0.0 0.0 0.00 0.00 0.00 35 1006.6
20240417121547 59 360 0.0 0.0 0.00 0.00 0.00 32 1006.4
20240417120050 59 360 0.0 0.0 0.00 0.00 0.00 32 1006.4
20240417114545 58 360 0.0 0.0 0.00 0.01 0.00 34 1006.4
20240417113044 58 360 0.0 0.0 0.00 0.01 0.00 35 1006.4
20240417111544 56 360 0.0 0.0 0.00 0.01 0.00 39 1006.5
20240417110055 57 360 0.0 0.0 0.00 0.01 0.00 38 1006.5
20240417104542 59 360 0.0 0.0 0.00 0.04 0.00 34 1006.6
20240417103052 60 360 0.0 0.0 0.00 0.04 0.00 33 1006.8
20240417101547 59 360 0.0 0.0 0.00 0.04 0.00 34 1006.8
20240417100038 58 360 0.0 0.0 0.00 0.04 0.00 36 1006.9
20240417094543 58 360 0.0 0.0 0.00 0.04 0.00 36 1006.6
20240417093042 57 360 0.0 0.0 0.00 0.04 0.00 38 1006.7
20240417091538 55 360 0.0 0.0 0.00 0.04 0.00 43 1006.7
20240417090030 50 360 0.0 0.0 0.00 0.04 0.00 51 1006.7
20240417084529 52 360 0.0 0.0 0.00 0.04 0.00 52 1006.6
20240417083029 55 360 0.0 0.0 0.00 0.04 0.00 41 1006.6
20240417081537 54 360 0.0 0.0 0.00 0.04 0.00 42 1006.6
20240417080027 53 360 0.0 0.0 0.00 0.04 0.00 45 1006.7
20240417074533 52 360 0.0 0.0 0.00 0.05 0.00 41 1006.6
20240417073034 52 360 0.0 0.0 0.00 0.05 0.00 44 1006.7
20240417071523 47 360 0.0 0.0 0.00 0.05 0.00 51 1006.8
20240417070019 49 360 0.0 0.0 0.00 0.05 0.00 47 1006.6
20240417064517 50 360 0.0 0.0 0.00 0.05 0.00 44 1006.7
20240417063015 48 360 0.0 0.0 0.00 0.05 0.00 52 1006.7
20240417061513 47 360 0.0 0.0 0.00 0.05 0.00 52 1006.8
20240417060009 48 360 0.0 0.0 0.00 0.05 0.00 49 1006.7
20240417054508 48 360 0.0 0.0 0.00 0.05 0.05 50 1006.7
20240417053007 49 360 0.0 0.0 0.00 0.05 0.05 46 1006.7
20240417051511 47 360 0.0 0.0 0.00 0.05 0.05 51 1006.6
20240417050006 51 360 0.0 0.0 0.00 0.05 0.05 45 1006.5
20240417044505 52 360 0.0 0.0 0.00 0.05 0.05 44 1006.5
20240417043004 53 360 0.0 0.0 0.00 0.05 0.05 43 1006.4
20240417041506 54 360 0.0 0.0 0.00 0.05 0.05 40 1006.4
20240417040010 53 360 0.0 0.0 0.00 0.05 0.05 44 1006.4
20240417034513 53 360 0.0 0.0 0.00 0.05 0.05 46 1006.6
20240417033002 54 360 0.0 0.0 0.00 0.05 0.05 41 1006.3
20240417031502 54 360 0.0 0.0 0.00 0.05 0.05 41 1006.4
20240417030107 55 360 0.0 0.0 0.00 0.05 0.05 39 1006.2
20240417024559 56 360 0.0 0.0 0.00 0.05 0.05 36 1006.1
20240417023057 57 360 0.0 0.0 0.00 0.05 0.05 37 1005.6
20240417021604 58 360 0.0 0.0 0.00 0.05 0.05 34 1005.5
20240417020057 58 360 0.0 0.0 0.00 0.05 0.05 35 1005.2
20240417014553 59 360 0.0 0.0 0.00 0.05 0.05 34 1004.6
20240417013052 60 360 0.0 0.0 0.00 0.05 0.05 33 1004.7
20240417011557 62 360 0.0 0.0 0.00 0.05 0.05 32 1004.6
20240417010056 63 360 0.0 0.0 0.00 0.05 0.05 31 1004.5
20240417004601 64 360 0.0 0.0 0.00 0.05 0.05 29 1004.5
20240417003050 65 360 0.0 0.0 0.00 0.05 0.05 28 1004.5
20240417001550 65 360 0.0 0.0 0.00 0.05 0.05 29 1004.6
20240417000056 65 360 0.0 0.0 0.00 0.05 0.05 29 1004.4
20240416234548 65 360 0.0 0.0 0.00 0.05 0.05 31 1004.6
20240416233048 64 360 0.0 0.0 0.00 0.05 0.05 31 1004.6
20240416231547 64 360 0.0 0.0 0.00 0.05 0.05 31 1004.6